Tracking 25963 objects as of 12-Aug-2022
HD Live streaming from Space Station
objects crossing your sky now

STARLINK-4108

Track STARLINK-4108 now!
10-day predictions
STARLINK-4108 is classified as:


NORAD ID: 52834
Int'l Code: 2022-062E
Perigee: 531.8 km
Apogee: 533.7 km
Inclination: 53.2 °
Period: 95.1 minutes
Semi major axis: 6903 km
RCS: Unknown
Launch date: June 17, 2022
Source: United States (US)
Launch site: AIR FORCE EASTERN TEST RANGE (AFETR)
aabbcc
Your satellite tracking list
Your tracking list is empty




NASA's NSSDC Master Catalog

Two Line Element Set (TLE):
1 52834U 22062E   22224.83335648 -.01133262  00000-0 -67908-1 0  9997
2 52834  53.2175 131.8817 0001410  53.8637 298.9666 15.13476797  8794
Source of the keplerian elements: AFSPC